User: anonymous   Login
Location: Fremont
(37.5480°N, 121.9880°W)
Time: 22:52:33
(UTC-08:00)
Language:

Cosmos 1766 - Orbit

View from above orbital plane
View from above orbital plane
View from above satellite
View from above satellite

Ground track
Ground track

The orbit data is extracted from the following two-line orbital elements,

1 16881U 86055A   16043.83861125  .00002318  00000-0  14367-3 0  9994
2 16881  82.5052 143.1676 0016312 353.1489   6.9514 15.09192373607459
Epoch (UTC): 12 February 2016 20:07:36
Eccentricity: 0.0016312
inclination: 82.5052°
perigee height: 527 km
apogee height: 550 km
right ascension of ascending node: 143.1676°
argument of perigee: 353.1489°
revolutions per day: 15.09192373
mean anomaly at epoch: 6.9514°
orbit number at epoch: 60745

The dashed part of the orbit path shows where the satellite is in the earth's shadow,  

DLR